Regional Weather Roundup
Issued by NWS Sterling, VA

Home | Current Version | Previous Version | Graphics & Text | Print | Product List | Glossary On
Versions: 1 2 3 4 5 6 7 8 9 10 11 12 13 14 15 16 17 18 19 20 21 22 23 24 25 26 27 28
000
ASUS41 KLWX 150110
RWRLWX

REGIONAL WEATHER ROUNDUP
NATIONAL WEATHER SERVICE BALTIMORE MD/WASHINGTON DC
900 PM EDT MON APR 14 2014

Note: "FAIR" indicates few or no clouds below 12,000 feet
with no significant weather and/or obstructions to visibility.
 TC=TEMPERATURE CELSIUS

 * =Non NWS site. Station does not report precipitation (e.g. rain,
    snow, etc.), thunder, or fog.

DCZ001-MDZ009-015-VAZ040>042-051-053>054-150200-
WASHINGTON METRO

CITY           SKY/WX    TMP DP  RH WIND       PRES   REMARKS
WASHINGTON NAT CLOUDY    72  55  55 S10       29.83S
DULLES         CLOUDY    71  49  45 S8        29.82S
ANDREWS AFB    CLOUDY    71  53  51 S10       29.84R
FT BELVOIR     CLOUDY    73  52  47 SE10      29.84R
QUANTICO       CLOUDY    66  56  70 SW6       29.85R
COLLEGE PARK*  CLOUDY    73  52  46 S5        29.83R
LEESBURG*      CLOUDY    72  54  53 S8        29.83S
MANASSAS*      CLOUDY    70  54  56 S8        29.83R
GAITHERSBURG*  CLOUDY    72  50  46 S9        29.86R

$$

MDZ006>007-011-014-150200-
BALTIMORE METRO

CITY           SKY/WX    TMP DP  RH WIND       PRES   REMARKS
BWI AIRPORT    CLOUDY    67  54  63 S8        29.83R
MD SCIENCE CTR   N/A     68  56  65 MISG      29.85R
ANNAPOLIS      CLOUDY    66  57  72 S15       29.85R
FORT MEADE*    CLOUDY    68  52  56 SE7       29.86R

$$

MDZ012-015-019>023-150200-
MARYLAND EASTERN SHORE

CITY           SKY/WX    TMP DP  RH WIND       PRES   REMARKS
OCEAN CITY     CLOUDY    58  55  90 SW13G18   29.95S
SALISBURY      CLOUDY    68  55  63 S10       29.91F
BAY BRIDGE AP* CLOUDY    66  57  72 SE13G23   29.86R
CAMBRIDGE*     CLOUDY    70  57  64 S10       29.89R

$$

MDZ017>025-150200-
SOUTHERN MARYLAND

CITY           SKY/WX    TMP DP  RH WIND       PRES   REMARKS
PATUXENT RIVER CLOUDY    62  55  77 SE9       29.87S
ST INIGOES     CLOUDY    65  55  70 SE9       29.87R
LEONARDTOWN*   CLOUDY    66  54  63 SE5       29.88S

$$

MDZ003>005-150200-
NORTH CENTRAL MARYLAND

CITY           SKY/WX    TMP DP  RH WIND       PRES   REMARKS
FREDERICK*     CLOUDY    72  54  53 S9        29.83S
HAGERSTOWN APT CLOUDY    71  52  50 S13G22    29.78R
WESTMINSTER*   CLOUDY    70  50  49 S9        29.83R

$$

MDZ501>502-150200-
WESTERN MARYLAND

CITY           SKY/WX    TMP DP  RH WIND       PRES   REMARKS
OAKLAND*       CLOUDY    55  55 100 S9        29.81S
CUMBERLAND*    CLOUDY    63  61  94 NW3       29.80F

$$

VAZ025>031-150200-
SHENANDOAH VALLEY

CITY           SKY/WX    TMP DP  RH WIND       PRES   REMARKS
WINCHESTER*    CLOUDY    70  52  52 S8        29.80R
STAUNTON*      CLOUDY    67  51  57 S6        29.85R

$$

WVZ021-048>050-054>055-150200-
EASTERN WEST VIRGINIA PANHANDLE

CITY           SKY/WX    TMP DP  RH WIND       PRES   REMARKS
MARTINSBURG    CLOUDY    71  51  49 S12       29.79R
PETERSBURG*    CLOUDY    73  58  60 S10       29.80R

$$

VAZ036>039-050-150200-
CENTRAL FOOTHILLS

CITY           SKY/WX    TMP DP  RH WIND       PRES   REMARKS
CHARLOTTESVILL CLOUDY    69  52  54 S9        29.82S
CULPEPER*      CLOUDY    73  50  43 CALM      29.83S

$$

VAZ055>057-150200-
NORTH AND CENTRAL PIEDMONT

CITY           SKY/WX    TMP DP  RH WIND       PRES   REMARKS
FREDERICKSBRG* CLOUDY    73  54  49 S10       29.83R
STAFFORD*      CLOUDY    73  54  50 S7        29.88R

$$

NCZ024-NYZ072-PAZ021-071-VAZ022-071-150200-
OTHER REGIONAL OBSERVATIONS

CITY           SKY/WX    TMP DP  RH WIND       PRES   REMARKS
NEW YORK CITY  CLOUDY    64  52  64 S9G18     29.91S
PHILADELPHIA   CLOUDY    68  54  60 S15       29.88S
PITTSBURGH     MOCLDY    63  55  75 S6        29.70F
ROANOKE        LGT RAIN  68  53  58 S9        29.84F
RICHMOND       CLOUDY    73  57  57 S15G22    29.87S
RALEIGH        CLOUDY    64  60  87 S6        29.90F

$$

ANZ530>537-150200-
MARINE OBSERVATIONS

STATION/POSITION TIME  TEMP    WIND        PRES
                       AIR SEA DIR/SP/G
                 (UTC) (F)     (DEG/KT/KT) (MB)
THOMAS PT LIGHT  0100   62 53  160/ 17/ 17 1011.6R
BALT KEY BRIDGE  0100   66     160/ 15/ 17 1010.1S
COVE POINT       0100   57     180/ 18/ 20 1011.4R
LEWISETTA        0100   65 60  170/  5/  7 1011.6R
SOLOMONS ISLAND  0100      56                N/A
PINEY POINT      0100          160/ 12/ 12   N/A

$$




USA.gov is the U.S. government's official web portal to all federal, state and local government web resources and services.